| time (UTC) | temp F | wind direction | speed knots | gust knots | rain 1hr in | rain 24hr in | rain mn in | humidity % | barometer mb |
| 20260504000509 | 53 | 313 | 1.7 | 7.0 | 0.00 | 0.33 | 0.19 | 86 | 1015.5 |
| 20260504000049 | 53 | 280 | 2.6 | 9.6 | 0.00 | 0.33 | 0.19 | 85 | 1015.5 |
| 20260503235510 | 53 | 285 | 4.3 | 9.6 | 0.00 | 0.33 | 0.19 | 84 | 1015.4 |
| 20260503235010 | 54 | 302 | 4.3 | 11.3 | 0.01 | 0.33 | 0.19 | 87 | 1015.5 |
| 20260503234511 | 54 | 346 | 3.5 | 11.3 | 0.01 | 0.33 | 0.19 | 87 | 1015.5 |
| 20260503234004 | 54 | 8 | 3.5 | 11.3 | 0.01 | 0.33 | 0.19 | 87 | 1015.8 |
| 20260503233510 | 54 | 289 | 2.6 | 11.3 | 0.01 | 0.33 | 0.19 | 89 | 1015.7 |
| 20260503233016 | 53 | 338 | 4.3 | 8.7 | 0.01 | 0.33 | 0.19 | 89 | 1015.7 |
| 20260503232505 | 53 | 346 | 4.3 | 11.3 | 0.01 | 0.33 | 0.19 | 90 | 1015.9 |
| 20260503232006 | 53 | 335 | 2.6 | 11.3 | 0.01 | 0.33 | 0.19 | 91 | 1015.8 |
| 20260503231516 | 52 | 321 | 5.2 | 9.6 | 0.01 | 0.33 | 0.19 | 90 | 1015.7 |
| 20260503231006 | 52 | 16 | 1.7 | 7.8 | 0.01 | 0.33 | 0.19 | 90 | 1015.3 |
| 20260503230509 | 52 | 295 | 1.7 | 7.8 | 0.00 | 0.32 | 0.18 | 90 | 1015.9 |
| 20260503230024 | 52 | 3 | 1.7 | 7.0 | 0.02 | 0.32 | 0.18 | 90 | 1015.8 |
| 20260503225510 | 52 | 299 | 2.6 | 7.0 | 0.02 | 0.32 | 0.18 | 89 | 1015.8 |
| 20260503225010 | 52 | 6 | 1.7 | 7.8 | 0.01 | 0.31 | 0.18 | 90 | 1015.8 |
| 20260503224526 | 52 | 324 | 2.6 | 8.7 | 0.01 | 0.31 | 0.18 | 90 | 1015.7 |
| 20260503224009 | 51 | 358 | 2.6 | 8.7 | 0.01 | 0.31 | 0.18 | 90 | 1015.7 |
| 20260503223511 | 51 | 334 | 1.7 | 8.7 | 0.01 | 0.31 | 0.18 | 90 | 1015.5 |
| 20260503223035 | 51 | 293 | 4.3 | 8.7 | 0.01 | 0.31 | 0.18 | 90 | 1015.6 |
| 20260503222507 | 51 | 323 | 2.6 | 7.8 | 0.01 | 0.31 | 0.18 | 90 | 1015.7 |
| 20260503222008 | 51 | 314 | 0.9 | 7.8 | 0.01 | 0.31 | 0.18 | 90 | 1015.7 |
| 20260503221517 | 51 | 296 | 2.6 | 8.7 | 0.01 | 0.31 | 0.18 | 90 | 1015.7 |
| 20260503221009 | 52 | 3 | 2.6 | 9.6 | 0.01 | 0.31 | 0.18 | 89 | 1015.7 |
| 20260503220509 | 52 | 330 | 3.5 | 9.6 | 0.01 | 0.31 | 0.18 | 89 | 1015.5 |
| 20260503220020 | 52 | 353 | 2.6 | 8.7 | 0.00 | 0.29 | 0.16 | 89 | 1015.4 |
| 20260503215512 | 52 | 320 | 2.6 | 7.0 | 0.00 | 0.29 | 0.16 | 90 | 1015.3 |
| 20260503215008 | 52 | 324 | 0.9 | 7.0 | 0.00 | 0.29 | 0.16 | 90 | 1015.3 |
| 20260503214527 | 52 | 339 | 1.7 | 7.0 | 0.00 | 0.29 | 0.16 | 90 | 1015.1 |
| 20260503214014 | 52 | 360 | 1.7 | 6.1 | 0.00 | 0.29 | 0.16 | 91 | 1015.1 |
| 20260503213514 | 52 | 14 | 1.7 | 7.0 | 0.00 | 0.29 | 0.16 | 92 | 1015.2 |
| 20260503213024 | 52 | 353 | 0.9 | 7.0 | 0.00 | 0.29 | 0.16 | 92 | 1015.1 |
| 20260503212508 | 51 | 358 | 1.7 | 7.0 | 0.00 | 0.29 | 0.16 | 92 | 1015.1 |
| 20260503212012 | 51 | 357 | 2.6 | 8.7 | 0.00 | 0.29 | 0.16 | 92 | 1015.1 |
| 20260503211527 | 51 | 3 | 2.6 | 8.7 | 0.00 | 0.29 | 0.16 | 92 | 1015.0 |
| 20260503211007 | 51 | 357 | 1.7 | 6.1 | 0.00 | 0.29 | 0.16 | 92 | 1015.0 |
| 20260503210511 | 51 | 302 | 0.9 | 7.0 | 0.00 | 0.29 | 0.16 | 91 | 1014.9 |
| 20260503210020 | 51 | 14 | 2.6 | 7.8 | 0.00 | 0.29 | 0.16 | 91 | 1014.8 |
| 20260503205509 | 51 | 337 | 2.6 | 7.8 | 0.00 | 0.29 | 0.16 | 91 | 1014.8 |
| 20260503205009 | 51 | 360 | 2.6 | 6.1 | 0.00 | 0.29 | 0.16 | 91 | 1014.8 |
| 20260503204522 | 51 | 358 | 1.7 | 8.7 | 0.00 | 0.29 | 0.16 | 91 | 1014.9 |
| 20260503204009 | 52 | 9 | 1.7 | 8.7 | 0.00 | 0.29 | 0.16 | 91 | 1014.8 |
| 20260503203513 | 51 | 358 | 2.6 | 7.8 | 0.00 | 0.29 | 0.16 | 91 | 1014.8 |
| 20260503203038 | 51 | 10 | 3.5 | 8.7 | 0.00 | 0.29 | 0.16 | 91 | 1014.7 |
| 20260503202511 | 51 | 29 | 3.5 | 8.7 | 0.00 | 0.29 | 0.16 | 91 | 1014.7 |
| 20260503202010 | 51 | 10 | 3.5 | 8.7 | 0.00 | 0.29 | 0.16 | 91 | 1014.6 |
| 20260503201532 | 51 | 16 | 3.5 | 8.7 | 0.00 | 0.29 | 0.16 | 91 | 1014.7 |
| 20260503201010 | 51 | 16 | 3.5 | 7.8 | 0.00 | 0.29 | 0.16 | 91 | 1014.8 |
| 20260503200511 | 51 | 33 | 1.7 | 5.2 | 0.00 | 0.29 | 0.16 | 91 | 1014.8 |
| 20260503200026 | 51 | 327 | 1.7 | 5.2 | 0.00 | 0.29 | 0.16 | 91 | 1014.8 |
| 20260503195512 | 51 | 348 | 0.9 | 4.3 | 0.00 | 0.29 | 0.16 | 90 | 1014.6 |
| 20260503195011 | 51 | 306 | 1.7 | 6.1 | 0.00 | 0.29 | 0.16 | 90 | 1014.6 |
| 20260503194522 | 51 | 351 | 1.7 | 7.0 | 0.00 | 0.29 | 0.16 | 90 | 1014.6 |
| 20260503194010 | 51 | 356 | 2.6 | 7.0 | 0.00 | 0.29 | 0.16 | 90 | 1014.4 |
| 20260503193505 | 51 | 353 | 2.6 | 7.8 | 0.00 | 0.29 | 0.16 | 90 | 1014.5 |
| 20260503193008 | 51 | 320 | 1.7 | 7.8 | 0.00 | 0.29 | 0.16 | 90 | 1014.3 |
| 20260503192504 | 51 | 20 | 2.6 | 9.6 | 0.00 | 0.29 | 0.16 | 90 | 1014.5 |
| 20260503192002 | 51 | 344 | 3.5 | 9.6 | 0.00 | 0.29 | 0.16 | 90 | 1014.3 |
| 20260503191510 | 51 | 314 | 2.6 | 9.6 | 0.00 | 0.29 | 0.16 | 89 | 1014.2 |
| 20260503191005 | 51 | 317 | 2.6 | 9.6 | 0.00 | 0.29 | 0.16 | 90 | 1014.2 |
| 20260503190507 | 51 | 10 | 2.6 | 7.8 | 0.00 | 0.29 | 0.16 | 90 | 1014.3 |
| 20260503190012 | 52 | 359 | 3.5 | 9.6 | 0.00 | 0.29 | 0.16 | 90 | 1014.3 |
| 20260503185507 | 52 | 40 | 2.6 | 9.6 | 0.00 | 0.29 | 0.16 | 90 | 1014.4 |
| 20260503185006 | 52 | 359 | 2.6 | 8.7 | 0.00 | 0.29 | 0.16 | 90 | 1014.3 |
| 20260503184519 | 52 | 8 | 2.6 | 8.7 | 0.00 | 0.29 | 0.16 | 90 | 1014.3 |
| 20260503184008 | 52 | 8 | 3.5 | 8.7 | 0.00 | 0.29 | 0.16 | 90 | 1014.3 |
| 20260503183511 | 52 | 336 | 5.2 | 9.6 | 0.00 | 0.29 | 0.16 | 90 | 1014.3 |
| 20260503183028 | 52 | 8 | 5.2 | 10.4 | 0.00 | 0.29 | 0.16 | 90 | 1014.2 |
| 20260503182513 | 52 | 8 | 4.3 | 11.3 | 0.00 | 0.29 | 0.16 | 90 | 1014.2 |
| 20260503182003 | 52 | 31 | 6.1 | 13.9 | 0.00 | 0.29 | 0.16 | 90 | 1014.2 |
| 20260503181505 | 51 | 18 | 6.1 | 13.9 | 0.00 | 0.29 | 0.16 | 90 | 1014.3 |
| 20260503181003 | 51 | 22 | 3.5 | 9.6 | 0.00 | 0.29 | 0.16 | 89 | 1014.3 |
| 20260503180508 | 51 | 8 | 3.5 | 9.6 | 0.00 | 0.29 | 0.16 | 90 | 1014.2 |
| 20260503180022 | 51 | 354 | 2.6 | 8.7 | 0.01 | 0.29 | 0.16 | 90 | 1014.3 |
| 20260503175507 | 51 | 321 | 1.7 | 9.6 | 0.02 | 0.29 | 0.16 | 90 | 1014.4 |
| 20260503175007 | 51 | 359 | 2.6 | 13.0 | 0.03 | 0.29 | 0.16 | 90 | 1014.5 |
| 20260503174516 | 51 | 54 | 4.3 | 13.0 | 0.03 | 0.29 | 0.16 | 90 | 1014.4 |
| 20260503174010 | 51 | 11 | 3.5 | 12.2 | 0.03 | 0.29 | 0.16 | 90 | 1014.5 |
| 20260503173508 | 51 | 355 | 5.2 | 12.2 | 0.03 | 0.29 | 0.16 | 90 | 1014.6 |
| 20260503173038 | 50 | 4 | 6.1 | 12.2 | 0.03 | 0.29 | 0.16 | 90 | 1014.6 |
| 20260503172510 | 50 | 16 | 2.6 | 6.1 | 0.03 | 0.29 | 0.16 | 90 | 1014.5 |
| 20260503172009 | 50 | 10 | 1.7 | 7.0 | 0.03 | 0.29 | 0.16 | 89 | 1014.5 |
| 20260503171533 | 50 | 339 | 2.6 | 7.0 | 0.03 | 0.29 | 0.15 | 89 | 1014.8 |
| 20260503171009 | 50 | 300 | 0.9 | 4.3 | 0.03 | 0.29 | 0.15 | 89 | 1014.8 |
| 20260503170509 | 50 | 2 | 0.9 | 7.8 | 0.04 | 0.29 | 0.15 | 88 | 1014.4 |
| 20260503151003 | 52 | 342 | 4.3 | 11.3 | 0.05 | 0.19 | 0.06 | 92 | 1016.2 |
| 20260503150503 | 52 | 299 | 3.5 | 9.6 | 0.05 | 0.18 | 0.05 | 92 | 1016.3 |
| 20260503131005 | 53 | 4 | 2.6 | 8.7 | 0.02 | 0.07 | 0.07 | 91 | 1017.0 |
| 20260503130502 | 53 | 338 | 3.5 | 8.7 | 0.02 | 0.07 | 0.07 | 91 | 1017.0 |
| 20260503110507 | 54 | 329 | 4.3 | 12.2 | 0.01 | 0.01 | 0.01 | 90 | 1017.7 |
| 20260503090507 | 56 | 333 | 4.3 | 9.6 | 0.00 | 0.00 | 0.00 | 85 | 1018.1 |
| 20260503081522 | 56 | 347 | 1.7 | 7.8 | 0.00 | 0.00 | 0.00 | 84 | 1017.9 |
| 20260503081010 | 56 | 317 | 4.3 | 8.7 | 0.00 | 0.00 | 0.00 | 84 | 1017.8 |
| 20260503080508 | 56 | 15 | 3.5 | 8.7 | 0.00 | 0.00 | 0.00 | 83 | 1017.8 |
| 20260503072510 | 57 | 341 | 1.7 | 9.6 | 0.00 | 0.00 | 0.00 | 81 | 1017.8 |
| 20260503072010 | 57 | 295 | 3.5 | 8.7 | 0.00 | 0.00 | 0.00 | 81 | 1017.7 |
| 20260503071517 | 57 | 320 | 2.6 | 15.6 | 0.00 | 0.00 | 0.00 | 80 | 1017.6 |
| 20260503071007 | 57 | 274 | 4.3 | 15.6 | 0.00 | 0.00 | 0.00 | 80 | 1017.7 |
| 20260503070507 | 57 | 303 | 3.5 | 15.6 | 0.00 | 0.00 | 0.00 | 80 | 1017.8 |
| 20260503055008 | 57 | 257 | 5.2 | 13.0 | 0.00 | 0.00 | 0.00 | 83 | 1018.2 |
| 20260503054520 | 57 | 283 | 4.3 | 12.2 | 0.00 | 0.00 | 0.00 | 83 | 1018.4 |
| 20260503054010 | 57 | 218 | 4.3 | 13.0 | 0.00 | 0.00 | 0.00 | 83 | 1018.4 |
| 20260503053507 | 57 | 283 | 4.3 | 16.5 | 0.00 | 0.00 | 0.00 | 83 | 1018.5 |
| 20260503053020 | 57 | 318 | 6.1 | 16.5 | 0.00 | 0.00 | 0.00 | 82 | 1018.6 |
| 20260503052506 | 58 | 291 | 4.3 | 13.0 | 0.00 | 0.00 | 0.00 | 82 | 1018.6 |
| 20260503052009 | 57 | 247 | 4.3 | 13.0 | 0.00 | 0.00 | 0.00 | 82 | 1018.5 |
| 20260503051525 | 57 | 309 | 3.5 | 11.3 | 0.00 | 0.00 | 0.00 | 83 | 1018.5 |
| 20260503051007 | 57 | 309 | 5.2 | 11.3 | 0.00 | 0.00 | 0.00 | 83 | 1018.6 |
| 20260503050506 | 57 | 343 | 4.3 | 11.3 | 0.00 | 0.00 | 0.00 | 84 | 1018.6 |
| 20260503050019 | 57 | 291 | 4.3 | 10.4 | 0.00 | 0.00 | 0.00 | 85 | 1018.6 |
| 20260503045507 | 57 | 299 | 3.5 | 10.4 | 0.00 | 0.00 | 0.00 | 85 | 1018.6 |
| 20260503045010 | 57 | 312 | 3.5 | 9.6 | 0.00 | 0.00 | 0.00 | 84 | 1018.6 |
| 20260503044528 | 57 | 247 | 4.3 | 10.4 | 0.00 | 0.00 | 0.00 | 83 | 1018.7 |
| 20260503044012 | 58 | 322 | 5.2 | 11.3 | 0.00 | 0.00 | 0.00 | 82 | 1018.6 |
| 20260503043510 | 58 | 344 | 4.3 | 11.3 | 0.00 | 0.00 | 0.00 | 81 | 1018.7 |
| 20260503043022 | 58 | 311 | 2.6 | 9.6 | 0.00 | 0.00 | 0.00 | 81 | 1018.6 |
| 20260503042510 | 57 | 312 | 3.5 | 12.2 | 0.00 | 0.00 | 0.00 | 81 | 1018.6 |
| 20260503042011 | 57 | 35 | 4.3 | 13.0 | 0.00 | 0.00 | 0.00 | 81 | 1018.6 |
| 20260503041522 | 57 | 274 | 6.1 | 13.9 | 0.00 | 0.00 | 0.00 | 80 | 1018.6 |
| 20260503041006 | 58 | 320 | 3.5 | 13.9 | 0.00 | 0.00 | 0.00 | 80 | 1018.8 |
| 20260503040508 | 58 | 274 | 3.5 | 13.0 | 0.00 | 0.00 | 0.00 | 79 | 1018.9 |
| 20260503040030 | 58 | 345 | 5.2 | 13.0 | 0.00 | 0.00 | 0.00 | 78 | 1018.8 |
| 20260503035508 | 59 | 317 | 5.2 | 14.8 | 0.00 | 0.00 | 0.00 | 77 | 1018.8 |
| 20260503035009 | 59 | 318 | 7.0 | 14.8 | 0.00 | 0.00 | 0.00 | 77 | 1018.8 |
| 20260503034522 | 59 | 274 | 5.2 | 13.0 | 0.00 | 0.00 | 0.00 | 77 | 1018.7 |
| 20260503034012 | 59 | 14 | 4.3 | 12.2 | 0.00 | 0.00 | 0.00 | 77 | 1018.8 |
| 20260503033509 | 59 | 318 | 4.3 | 12.2 | 0.00 | 0.00 | 0.00 | 78 | 1018.9 |
| 20260503033045 | 59 | 311 | 3.5 | 13.9 | 0.00 | 0.00 | 0.00 | 78 | 1019.2 |
| 20260503032510 | 59 | 303 | 3.5 | 17.4 | 0.00 | 0.00 | 0.00 | 78 | 1019.1 |
| 20260503032010 | 59 | 328 | 3.5 | 17.4 | 0.00 | 0.00 | 0.00 | 77 | 1019.2 |
| 20260503031533 | 59 | 345 | 4.3 | 14.8 | 0.00 | 0.00 | 0.00 | 77 | 1019.3 |
| 20260503031009 | 59 | 287 | 5.2 | 13.9 | 0.00 | 0.00 | 0.00 | 77 | 1019.3 |
| 20260503030510 | 59 | 335 | 6.1 | 16.5 | 0.00 | 0.00 | 0.00 | 76 | 1019.4 |
| 20260503030027 | 59 | 316 | 7.0 | 16.5 | 0.00 | 0.00 | 0.00 | 76 | 1019.4 |
| 20260503025507 | 59 | 281 | 5.2 | 19.1 | 0.00 | 0.00 | 0.00 | 76 | 1019.3 |
| 20260503025011 | 59 | 341 | 7.8 | 19.1 | 0.00 | 0.00 | 0.00 | 75 | 1019.4 |
| 20260503024526 | 59 | 299 | 7.0 | 16.5 | 0.00 | 0.00 | 0.00 | 76 | 1019.3 |
| 20260503024009 | 59 | 287 | 5.2 | 16.5 | 0.00 | 0.00 | 0.00 | 76 | 1019.4 |
| 20260503023510 | 59 | 355 | 6.1 | 14.8 | 0.00 | 0.00 | 0.00 | 76 | 1019.3 |
| 20260503023040 | 59 | 337 | 4.3 | 20.0 | 0.00 | 0.00 | 0.00 | 76 | 1019.4 |
| 20260503022509 | 59 | 354 | 8.7 | 20.0 | 0.00 | 0.00 | 0.00 | 76 | 1019.5 |
| 20260503022016 | 59 | 351 | 6.1 | 13.9 | 0.00 | 0.00 | 0.00 | 76 | 1019.6 |
| 20260503021525 | 59 | 4 | 6.1 | 18.2 | 0.00 | 0.00 | 0.00 | 75 | 1019.8 |
| 20260503021011 | 60 | 355 | 7.0 | 18.2 | 0.00 | 0.00 | 0.00 | 73 | 1019.8 |
| 20260503020512 | 61 | 286 | 5.2 | 15.6 | 0.00 | 0.00 | 0.00 | 72 | 1019.9 |
| 20260503020026 | 62 | 61 | 6.1 | 14.8 | 0.00 | 0.00 | 0.00 | 71 | 1020.0 |
| 20260503015510 | 61 | 311 | 5.2 | 14.8 | 0.00 | 0.00 | 0.00 | 72 | 1020.0 |
| 20260503015012 | 61 | 331 | 5.2 | 14.8 | 0.00 | 0.00 | 0.00 | 72 | 1020.0 |
| 20260503014514 | 60 | 329 | 7.0 | 17.4 | 0.00 | 0.00 | 0.00 | 73 | 1020.1 |
| 20260503014008 | 60 | 339 | 5.2 | 17.4 | 0.00 | 0.00 | 0.00 | 73 | 1020.1 |
| 20260503013509 | 60 | 308 | 7.0 | 15.6 | 0.00 | 0.00 | 0.00 | 72 | 1020.0 |
| 20260503013020 | 60 | 333 | 5.2 | 15.6 | 0.00 | 0.00 | 0.00 | 72 | 1020.2 |
| 20260503012512 | 60 | 309 | 4.3 | 15.6 | 0.00 | 0.00 | 0.00 | 73 | 1020.3 |
| 20260503012011 | 59 | 333 | 7.8 | 16.5 | 0.00 | 0.00 | 0.00 | 73 | 1020.4 |
| 20260503011524 | 59 | 315 | 5.2 | 16.5 | 0.00 | 0.00 | 0.00 | 74 | 1020.4 |
| 20260503011009 | 59 | 327 | 7.0 | 16.5 | 0.00 | 0.00 | 0.00 | 74 | 1020.5 |
| 20260503010509 | 59 | 341 | 5.2 | 11.3 | 0.00 | 0.00 | 0.00 | 75 | 1020.6 |
| 20260503010012 | 59 | 3 | 4.3 | 11.3 | 0.00 | 0.00 | 0.00 | 74 | 1020.5 |
| 20260503005505 | 59 | 1 | 5.2 | 14.8 | 0.00 | 0.00 | 0.00 | 74 | 1020.7 |
| 20260503005010 | 60 | 281 | 4.3 | 14.8 | 0.00 | 0.00 | 0.00 | 74 | 1020.8 |
| 20260503004513 | 60 | 310 | 3.5 | 15.6 | 0.00 | 0.00 | 0.00 | 74 | 1020.8 |
| 20260503004009 | 60 | 326 | 4.3 | 15.6 | 0.00 | 0.00 | 0.00 | 74 | 1020.9 |
| 20260503003505 | 60 | 36 | 3.5 | 13.9 | 0.00 | 0.00 | 0.00 | 74 | 1020.9 |
| 20260503003021 | 60 | 346 | 6.1 | 13.9 | 0.00 | 0.00 | 0.00 | 74 | 1020.9 |
| 20260503002514 | 60 | 326 | 2.6 | 9.6 | 0.00 | 0.00 | 0.00 | 75 | 1021.0 |
| 20260503002009 | 60 | 266 | 3.5 | 20.9 | 0.00 | 0.00 | 0.00 | 74 | 1021.0 |
| 20260503001522 | 60 | 304 | 3.5 | 20.9 | 0.00 | 0.00 | 0.00 | 74 | 1021.1 |
| 20260503001009 | 60 | 329 | 5.2 | 20.9 | 0.00 | 0.00 | 0.00 | 74 | 1021.1 |